,,PA_Meas_PMT16A,,PR_Meas_QMR101_102,,RH_Meas_QMH101,,SR_Meas_QMS101,,TA_Meas_QMH101,,GenWind,,GenWind,
time,status,PA,status,PR,status,RH,status,SR,status,TA,status,DirAvg,status,SpdAvg,
2011-12-14, 00:00:05,VALID,917.622,VALID,0,VALID,97.5264,VALID,0,VALID,20.4439,VALID,98,VALID,0.669531,
2011-12-14, 00:01:05,VALID,917.625,VALID,0,VALID,97.4425,VALID,0,VALID,20.4244,VALID,68,VALID,0.970703,
2011-12-14, 00:02:05,VALID,917.606,VALID,0,VALID,97.4273,VALID,0,VALID,20.4049,VALID,68,VALID,0.954297,
2011-12-14, 00:03:05,VALID,917.636,VALID,0,VALID,97.4349,VALID,0,VALID,20.3854,VALID,68,VALID,1.00977,
2011-12-14, 00:04:05,VALID,917.628,VALID,0,VALID,97.473,VALID,0,VALID,20.3854,VALID,68,VALID,1.0125,
2011-12-14, 00:05:05,VALID,917.65,VALID,0,VALID,97.5035,VALID,0,VALID,20.3659,VALID,67,VALID,1.21367,
2011-12-14, 00:06:05,VALID,917.695,VALID,0,VALID,97.5264,VALID,0,VALID,20.4049,VALID,67,VALID,1.28047,
2011-12-14, 00:07:05,VALID,917.706,VALID,0,VALID,97.5416,VALID,0,VALID,20.4049,VALID,68,VALID,0.663281,
2011-12-14, 00:08:05,VALID,917.697,VALID,0,VALID,97.5264,VALID,0,VALID,20.3854,VALID,68,VALID,0.813672,
2011-12-14, 00:09:05,VALID,917.697,VALID,0,VALID,97.534,VALID,0,VALID,20.4244,VALID,67,VALID,0.916016,
2011-12-14, 00:10:05,VALID,917.656,VALID,0,VALID,97.5569,VALID,0,VALID,20.4049,VALID,68,VALID,0.622266,
2011-12-14, 00:11:05,VALID,917.654,VALID,0,VALID,97.534,VALID,0,VALID,20.4244,VALID,68,VALID,0.683203,
2011-12-14, 00:12:05,VALID,917.622,VALID,0,VALID,97.5873,VALID,0,VALID,20.4228,VALID,68,VALID,0.513672,
2011-12-14, 00:13:05,VALID,917.611,VALID,0,VALID,97.5721,VALID,0,VALID,20.4813,VALID,68,VALID,0.48125,
2011-12-14, 00:14:05,VALID,917.612,VALID,0,VALID,97.534,VALID,0,VALID,20.4634,VALID,67,VALID,0.469141,
2011-12-14, 00:15:05,VALID,917.606,VALID,0,VALID,97.595,VALID,0,VALID,20.4634,VALID,67,VALID,0.361719,
2011-12-14, 00:16:05,VALID,917.555,VALID,0,VALID,97.6178,VALID,0,VALID,20.5009,VALID,67,VALID,0.498047,
2011-12-14, 00:17:05,VALID,917.598,VALID,0,VALID,97.5721,VALID,0,VALID,20.5024,VALID,68,VALID,0.466016,
2011-12-14, 00:18:05,VALID,917.569,VALID,0,VALID,97.5416,VALID,0,VALID,20.5024,VALID,67,VALID,0.302344,
2011-12-14, 00:19:05,VALID,917.568,VALID,0,VALID,97.5416,VALID,0,VALID,20.4813,VALID,68,VALID,0,
2011-12-14, 00:20:05,VALID,917.553,VALID,0,VALID,97.5797,VALID,0,VALID,20.5009,VALID,67,VALID,0,
2011-12-14, 00:21:05,VALID,917.537,VALID,0,VALID,97.5797,VALID,0,VALID,20.5204,VALID,68,VALID,0,
2011-12-14, 00:22:05,VALID,917.553,VALID,0,VALID,97.5873,VALID,0,VALID,20.5609,VALID,68,VALID,0,
2011-12-14, 00:23:05,VALID,917.537,VALID,0,VALID,97.5569,VALID,0,VALID,20.5414,VALID,68,VALID,0.0117188,
2011-12-14, 00:24:05,VALID,917.494,VALID,0,VALID,97.5264,VALID,0,VALID,20.5414,VALID,68,VALID,0.386719,
2011-12-14, 00:25:05,VALID,917.455,VALID,0,VALID,97.5264,VALID,0,VALID,20.5009,VALID,68,VALID,0.309375,
2011-12-14, 00:26:05,VALID,917.442,VALID,0,VALID,97.5111,VALID,0,VALID,20.5219,VALID,68,VALID,0.719922,
2011-12-14, 00:27:05,VALID,917.413,VALID,0,VALID,97.5111,VALID,0,VALID,20.5024,VALID,67,VALID,0.572266,
2011-12-14, 00:28:05,VALID,917.38,VALID,0,VALID,97.4959,VALID,0,VALID,20.4618,VALID,67,VALID,0.700391,
2011-12-14, 00:29:05,VALID,917.361,VALID,0,VALID,97.534,VALID,0,VALID,20.4439,VALID,68,VALID,0.581641,
2011-12-14, 00:30:05,VALID,917.364,VALID,0,VALID,97.534,VALID,0,VALID,20.4634,VALID,68,VALID,0.508984,
2011-12-14, 00:31:05,VALID,917.359,VALID,0,VALID,97.5264,VALID,0,VALID,20.4634,VALID,67,VALID,0.360547,
2011-12-14, 00:32:05,VALID,917.362,VALID,0,VALID,97.5645,VALID,0,VALID,20.4423,VALID,67,VALID,0.336719,
2011-12-14, 00:33:05,VALID,917.356,VALID,0,VALID,97.5721,VALID,0,VALID,20.4423,VALID,67,VALID,0.251953,
2011-12-14, 00:34:05,VALID,917.348,VALID,0,VALID,97.5645,VALID,0,VALID,20.4813,VALID,68,VALID,0.0230469,
2011-12-14, 00:35:05,VALID,917.31,VALID,0,VALID,97.5645,VALID,0,VALID,20.4618,VALID,68,VALID,0.457031,
2011-12-14, 00:36:05,VALID,917.336,VALID,0,VALID,97.5645,VALID,0,VALID,20.4829,VALID,67,VALID,0.414844,
2011-12-14, 00:37:05,VALID,917.321,VALID,0,VALID,97.5492,VALID,0,VALID,20.4634,VALID,67,VALID,0.270312,
2011-12-14, 00:38:05,VALID,917.285,VALID,0,VALID,97.5721,VALID,0.107441,VALID,20.4228,VALID,68,VALID,0.425,
2011-12-14, 00:39:05,VALID,917.263,VALID,0,VALID,97.5873,VALID,0,VALID,20.4439,VALID,67,VALID,0,
2011-12-14, 00:40:05,VALID,917.251,VALID,0,VALID,97.595,VALID,0,VALID,20.4423,VALID,68,VALID,0.158594,
2011-12-14, 00:41:05,VALID,917.205,VALID,0,VALID,97.595,VALID,0,VALID,20.4829,VALID,67,VALID,0,
2011-12-14, 00:42:05,VALID,917.171,VALID,0,VALID,97.595,VALID,0,VALID,20.5024,VALID,67,VALID,0,
2011-12-14, 00:43:05,VALID,917.187,VALID,0,VALID,97.6026,VALID,0,VALID,20.5024,VALID,68,VALID,0,
2011-12-14, 00:44:05,VALID,917.127,VALID,0,VALID,97.595,VALID,0,VALID,20.5204,VALID,67,VALID,0,
2011-12-14, 00:45:05,VALID,917.108,VALID,0,VALID,97.6102,VALID,0,VALID,20.5009,VALID,68,VALID,0,
2011-12-14, 00:46:05,VALID,917.091,VALID,0,VALID,97.6102,VALID,0,VALID,20.5219,VALID,68,VALID,0,
2011-12-14, 00:47:05,VALID,917.107,VALID,0,VALID,97.595,VALID,0,VALID,20.5024,VALID,67,VALID,0,
2011-12-14, 00:48:05,VALID,917.067,VALID,0,VALID,97.5873,VALID,0,VALID,20.4829,VALID,68,VALID,0.003125,
2011-12-14, 00:49:05,VALID,917.091,VALID,0,VALID,97.5873,VALID,0,VALID,20.5024,VALID,67,VALID,0.240625,
2011-12-14, 00:50:05,VALID,917.065,VALID,0,VALID,97.5873,VALID,0,VALID,20.5219,VALID,68,VALID,0.107031,
2011-12-14, 00:51:05,VALID,917.094,VALID,0,VALID,97.5721,VALID,0,VALID,20.4829,VALID,68,VALID,0.0886719,
2011-12-14, 00:52:05,VALID,917.107,VALID,0,VALID,97.5873,VALID,0,VALID,20.4618,VALID,68,VALID,0.00585938,
2011-12-14, 00:53:05,VALID,917.101,VALID,0,VALID,97.5721,VALID,0,VALID,20.5024,VALID,68,VALID,0.00390625,
2011-12-14, 00:54:05,VALID,917.068,VALID,0,VALID,97.5797,VALID,0,VALID,20.4634,VALID,68,VALID,0.0777344,
2011-12-14, 00:55:05,VALID,917.066,VALID,0,VALID,97.5416,VALID,0,VALID,20.4439,VALID,68,VALID,0.253516,
2011-12-14, 00:56:05,VALID,917.039,VALID,0,VALID,97.5569,VALID,0,VALID,20.4439,VALID,67,VALID,0.187891,
2011-12-14, 00:57:05,VALID,917.026,VALID,0,VALID,97.5721,VALID,0,VALID,20.4244,VALID,68,VALID,0.523047,
2011-12-14, 00:58:05,VALID,916.986,VALID,0,VALID,97.5721,VALID,0,VALID,20.4049,VALID,68,VALID,0.426172,
2011-12-14, 00:59:05,VALID,916.973,VALID,0,VALID,97.5721,VALID,0,VALID,20.4049,VALID,68,VALID,0.496094,
2011-12-14, 01:00:05,VALID,916.941,VALID,0,VALID,97.595,VALID,0,VALID,20.4033,VALID,68,VALID,0.608203,
2011-12-14, 01:01:05,VALID,916.964,VALID,0,VALID,97.595,VALID,0,VALID,20.3659,VALID,68,VALID,0.266016,
2011-12-14, 01:02:05,VALID,916.924,VALID,0,VALID,97.595,VALID,0,VALID,20.3643,VALID,68,VALID,0.0253906,
2011-12-14, 01:03:05,VALID,916.921,VALID,0,VALID,97.595,VALID,0,VALID,20.4049,VALID,68,VALID,0.255078,
2011-12-14, 01:04:05,VALID,916.932,VALID,0,VALID,97.595,VALID,0,VALID,20.4049,VALID,68,VALID,0.046875,
2011-12-14, 01:05:05,VALID,916.915,VALID,0,VALID,97.6331,VALID,0,VALID,20.4244,VALID,68,VALID,0,
2011-12-14, 01:06:05,VALID,916.89,VALID,0,VALID,97.6026,VALID,0,VALID,20.4049,VALID,68,VALID,0,
2011-12-14, 01:07:05,VALID,916.886,VALID,0,VALID,97.6102,VALID,0,VALID,20.4049,VALID,67,VALID,0,
2011-12-14, 01:08:05,VALID,916.868,VALID,0,VALID,97.6026,VALID,0,VALID,20.3854,VALID,68,VALID,0,
2011-12-14, 01:09:05,VALID,916.85,VALID,0,VALID,97.6331,VALID,0,VALID,20.4244,VALID,68,VALID,0,
2011-12-14, 01:10:05,VALID,916.869,VALID,0,VALID,97.6255,VALID,0,VALID,20.4033,VALID,68,VALID,0,
2011-12-14, 01:11:05,VALID,916.835,VALID,0,VALID,97.6255,VALID,0,VALID,20.4244,VALID,68,VALID,0.112109,
2011-12-14, 01:12:04,VALID,916.842,VALID,0,VALID,97.6102,VALID,0,VALID,20.4049,VALID,68,VALID,0,
2011-12-14, 01:13:04,VALID,916.888,VALID,0,VALID,97.6026,VALID,0,VALID,20.3838,VALID,68,VALID,0,
2011-12-14, 01:14:04,VALID,916.877,VALID,0,VALID,97.6331,VALID,0,VALID,20.4049,VALID,68,VALID,0,
2011-12-14, 01:15:04,VALID,916.845,VALID,0,VALID,97.6255,VALID,0,VALID,20.4049,VALID,68,VALID,0,
2011-12-14, 01:16:04,VALID,916.852,VALID,0,VALID,97.6483,VALID,0,VALID,20.3854,VALID,67,VALID,0,
2011-12-14, 01:17:04,VALID,916.817,VALID,0,VALID,97.6636,VALID,0,VALID,20.4033,VALID,68,VALID,0,
2011-12-14, 01:18:04,VALID,916.799,VALID,0,VALID,97.6102,VALID,0,VALID,20.4228,VALID,68,VALID,0,
2011-12-14, 01:19:04,VALID,916.779,VALID,0,VALID,97.5569,VALID,0,VALID,20.3448,VALID,68,VALID,0,
2011-12-14, 01:20:04,VALID,916.737,VALID,0,VALID,97.5569,VALID,0,VALID,20.3269,VALID,68,VALID,0.346484,
2011-12-14, 01:21:04,VALID,916.746,VALID,0,VALID,97.6026,VALID,0,VALID,20.3253,VALID,68,VALID,0.400391,
2011-12-14, 01:22:04,VALID,916.725,VALID,0,VALID,97.6102,VALID,0,VALID,20.3464,VALID,67,VALID,0.0046875,
2011-12-14, 01:23:04,VALID,916.719,VALID,0,VALID,97.5873,VALID,0,VALID,20.3253,VALID,68,VALID,0.413281,
2011-12-14, 01:24:04,VALID,916.706,VALID,0,VALID,97.595,VALID,0,VALID,20.3464,VALID,67,VALID,0.629297,
2011-12-14, 01:25:04,VALID,916.704,VALID,0,VALID,97.6026,VALID,0,VALID,20.3269,VALID,158,VALID,0.898438,
2011-12-14, 01:26:04,VALID,916.683,VALID,0,VALID,97.6255,VALID,0,VALID,20.3074,VALID,158,VALID,0.792578,
2011-12-14, 01:27:04,VALID,916.633,VALID,0,VALID,97.6255,VALID,0,VALID,20.3074,VALID,158,VALID,0.720703,
2011-12-14, 01:28:04,VALID,916.637,VALID,0,VALID,97.6407,VALID,0,VALID,20.3074,VALID,157,VALID,0.412109,
2011-12-14, 01:29:04,VALID,916.62,VALID,0,VALID,97.6178,VALID,0,VALID,20.3074,VALID,133,VALID,1.12031,
2011-12-14, 01:30:04,VALID,916.592,VALID,0,VALID,97.6331,VALID,0,VALID,20.3074,VALID,133,VALID,0.951563,
2011-12-14, 01:31:04,VALID,916.556,VALID,0,VALID,97.6331,VALID,0,VALID,20.2668,VALID,133,VALID,0.755859,
2011-12-14, 01:32:04,VALID,916.521,VALID,0,VALID,97.6255,VALID,0,VALID,20.3058,VALID,128,VALID,0.661328,
2011-12-14, 01:33:04,VALID,916.483,VALID,0,VALID,97.6483,VALID,0,VALID,20.3074,VALID,117,VALID,0.91875,
2011-12-14, 01:34:04,VALID,916.486,VALID,0,VALID,97.656,VALID,0,VALID,20.2083,VALID,117,VALID,0.718359,
2011-12-14, 01:35:04,VALID,916.468,VALID,0,VALID,97.6483,VALID,0,VALID,20.2278,VALID,92,VALID,1.11563,
2011-12-14, 01:36:04,VALID,916.415,VALID,0,VALID,97.6407,VALID,0,VALID,20.2863,VALID,103,VALID,0.825781,
2011-12-14, 01:37:04,VALID,916.387,VALID,0,VALID,97.6407,VALID,0,VALID,20.2879,VALID,104,VALID,0.679297,
2011-12-14, 01:38:04,VALID,916.402,VALID,0,VALID,97.656,VALID,0,VALID,20.2489,VALID,103,VALID,0.968359,
2011-12-14, 01:39:04,VALID,916.371,VALID,0,VALID,97.6636,VALID,0,VALID,20.2489,VALID,103,VALID,0.639453,
2011-12-14, 01:40:04,VALID,916.371,VALID,0,VALID,97.6636,VALID,0,VALID,20.2489,VALID,103,VALID,0.721875,
2011-12-14, 01:41:04,VALID,916.343,VALID,0,VALID,97.656,VALID,0,VALID,20.2473,VALID,104,VALID,0.482812,
2011-12-14, 01:42:04,VALID,916.306,VALID,0,VALID,97.6712,VALID,0,VALID,20.2489,VALID,104,VALID,0.655078,
2011-12-14, 01:43:04,VALID,916.322,VALID,0,VALID,97.6941,VALID,0,VALID,20.2293,VALID,104,VALID,0.3375,
2011-12-14, 01:44:04,VALID,916.304,VALID,0,VALID,97.6788,VALID,0,VALID,20.3074,VALID,128,VALID,0.476172,
2011-12-14, 01:45:04,VALID,916.295,VALID,0,VALID,97.7017,VALID,0,VALID,20.2473,VALID,128,VALID,0.393359,
2011-12-14, 01:46:04,VALID,916.236,VALID,0,VALID,97.7017,VALID,0,VALID,20.2863,VALID,128,VALID,0.277734,
2011-12-14, 01:47:04,VALID,916.292,VALID,0,VALID,97.7017,VALID,0,VALID,20.2863,VALID,128,VALID,0.408203,
2011-12-14, 01:48:04,VALID,916.319,VALID,0,VALID,97.7246,VALID,0,VALID,20.3253,VALID,127,VALID,0.483984,
2011-12-14, 01:49:04,VALID,916.278,VALID,0,VALID,97.7017,VALID,0,VALID,20.3659,VALID,141,VALID,0.609375,
2011-12-14, 01:50:04,VALID,916.318,VALID,0,VALID,97.7169,VALID,0,VALID,20.3643,VALID,173,VALID,1.23906,
2011-12-14, 01:51:04,VALID,916.346,VALID,0,VALID,97.7169,VALID,0,VALID,20.3643,VALID,180,VALID,0.976172,
2011-12-14, 01:52:04,VALID,916.315,VALID,0,VALID,97.6788,VALID,0,VALID,20.3643,VALID,172,VALID,0.829687,
2011-12-14, 01:53:04,VALID,916.358,VALID,0,VALID,97.6941,VALID,0.107441,VALID,20.3854,VALID,166,VALID,0.858203,
2011-12-14, 01:54:04,VALID,916.317,VALID,0,VALID,97.6712,VALID,0,VALID,20.3854,VALID,164,VALID,1.19219,
2011-12-14, 01:55:04,VALID,916.335,VALID,0,VALID,97.6865,VALID,0,VALID,20.3448,VALID,179,VALID,1.01758,
2011-12-14, 01:56:04,VALID,916.34,VALID,0,VALID,97.6865,VALID,0,VALID,20.3643,VALID,148,VALID,0.597656,
2011-12-14, 01:57:04,VALID,916.361,VALID,0,VALID,97.7017,VALID,0,VALID,20.3659,VALID,148,VALID,1.14258,
2011-12-14, 01:58:04,VALID,916.352,VALID,0,VALID,97.6788,VALID,0,VALID,20.3253,VALID,148,VALID,0.693359,
2011-12-14, 01:59:04,VALID,916.359,VALID,0,VALID,97.6712,VALID,0,VALID,20.3464,VALID,129,VALID,1.06797,
2011-12-14, 02:00:04,VALID,916.336,VALID,0,VALID,97.6865,VALID,0,VALID,20.3253,VALID,118,VALID,1.35391,
2011-12-14, 02:01:04,VALID,916.345,VALID,0,VALID,97.7017,VALID,0,VALID,20.3269,VALID,118,VALID,1.10625,
2011-12-14, 02:02:04,VALID,916.351,VALID,0,VALID,97.7093,VALID,0,VALID,20.3464,VALID,118,VALID,0.876172,
2011-12-14, 02:03:04,VALID,916.336,VALID,0,VALID,97.7017,VALID,0,VALID,20.2668,VALID,122,VALID,0.999609,
2011-12-14, 02:04:04,VALID,916.353,VALID,0,VALID,97.7017,VALID,0,VALID,20.3269,VALID,154,VALID,0.904688,
2011-12-14, 02:05:04,VALID,916.357,VALID,0,VALID,97.7169,VALID,0,VALID,20.3074,VALID,153,VALID,0.482031,
2011-12-14, 02:06:04,VALID,916.365,VALID,0,VALID,97.7093,VALID,0,VALID,20.3479,VALID,153,VALID,0.407422,
2011-12-14, 02:07:04,VALID,916.371,VALID,0,VALID,97.7169,VALID,0,VALID,20.3269,VALID,153,VALID,0.792188,
2011-12-14, 02:08:04,VALID,916.357,VALID,0,VALID,97.6941,VALID,0,VALID,20.3074,VALID,153,VALID,1.19766,
2011-12-14, 02:09:04,VALID,916.352,VALID,0,VALID,97.7093,VALID,0,VALID,20.3269,VALID,153,VALID,0.719141,
2011-12-14, 02:10:04,VALID,916.349,VALID,0,VALID,97.6941,VALID,0,VALID,20.3074,VALID,153,VALID,0.899219,
2011-12-14, 02:11:04,VALID,916.341,VALID,0,VALID,97.7169,VALID,0,VALID,20.2684,VALID,153,VALID,0.838672,
2011-12-14, 02:12:04,VALID,916.352,VALID,0,VALID,97.7093,VALID,0,VALID,20.2879,VALID,153,VALID,0.858203,
2011-12-14, 02:13:04,VALID,916.367,VALID,0,VALID,97.7169,VALID,0,VALID,20.2879,VALID,153,VALID,0.278516,
2011-12-14, 02:14:04,VALID,916.341,VALID,0,VALID,97.7169,VALID,0,VALID,20.2684,VALID,153,VALID,0.542578,
2011-12-14, 02:15:04,VALID,916.32,VALID,0,VALID,97.7017,VALID,0,VALID,20.2473,VALID,153,VALID,0.485938,
2011-12-14, 02:16:04,VALID,916.344,VALID,0,VALID,97.7017,VALID,0,VALID,20.2879,VALID,153,VALID,0.00898437,
2011-12-14, 02:17:04,VALID,916.319,VALID,0,VALID,97.7398,VALID,0,VALID,20.3074,VALID,153,VALID,0,
2011-12-14, 02:18:04,VALID,916.351,VALID,0,VALID,97.7398,VALID,0,VALID,20.3269,VALID,153,VALID,0,
2011-12-14, 02:19:04,VALID,916.347,VALID,0,VALID,97.7322,VALID,0,VALID,20.2684,VALID,153,VALID,0,
2011-12-14, 02:20:04,VALID,916.336,VALID,0,VALID,97.7017,VALID,0,VALID,20.2489,VALID,153,VALID,0,
2011-12-14, 02:21:04,VALID,916.31,VALID,0,VALID,97.7169,VALID,0,VALID,20.3089,VALID,153,VALID,0.297656,
2011-12-14, 02:22:04,VALID,916.334,VALID,0,VALID,97.7017,VALID,0,VALID,20.2473,VALID,153,VALID,0,
2011-12-14, 02:23:04,VALID,916.311,VALID,0,VALID,97.7169,VALID,0,VALID,20.2684,VALID,153,VALID,0,
2011-12-14, 02:24:04,VALID,916.317,VALID,0,VALID,97.7017,VALID,0,VALID,20.2684,VALID,153,VALID,0,
2011-12-14, 02:25:04,VALID,916.286,VALID,0,VALID,97.7322,VALID,0,VALID,20.3089,VALID,153,VALID,0,
2011-12-14, 02:26:04,VALID,916.294,VALID,0,VALID,97.7246,VALID,0,VALID,20.3269,VALID,153,VALID,0,
2011-12-14, 02:27:04,VALID,916.28,VALID,0,VALID,97.7474,VALID,0,VALID,20.3074,VALID,153,VALID,0,
2011-12-14, 02:28:04,VALID,916.301,VALID,0,VALID,97.7169,VALID,0,VALID,20.3464,VALID,153,VALID,0,
2011-12-14, 02:29:04,VALID,916.287,VALID,0,VALID,97.7093,VALID,0,VALID,20.3074,VALID,153,VALID,0,
2011-12-14, 02:30:04,VALID,916.257,VALID,0,VALID,97.7093,VALID,0,VALID,20.3464,VALID,153,VALID,0,
2011-12-14, 02:31:04,VALID,916.281,VALID,0,VALID,97.7246,VALID,0,VALID,20.3074,VALID,153,VALID,0,
2011-12-14, 02:32:04,VALID,916.27,VALID,0,VALID,97.7017,VALID,0,VALID,20.3253,VALID,153,VALID,0,
2011-12-14, 02:33:04,VALID,916.27,VALID,0,VALID,97.7093,VALID,0,VALID,20.3464,VALID,153,VALID,0,
2011-12-14, 02:34:04,VALID,916.285,VALID,0,VALID,97.6941,VALID,0,VALID,20.3448,VALID,153,VALID,0,
2011-12-14, 02:35:04,VALID,916.279,VALID,0,VALID,97.7017,VALID,0,VALID,20.2489,VALID,153,VALID,0.179297,
2011-12-14, 02:36:04,VALID,916.267,VALID,0,VALID,97.6712,VALID,0,VALID,20.2684,VALID,153,VALID,0.0589844,
2011-12-14, 02:37:04,VALID,916.235,VALID,0,VALID,97.6865,VALID,0,VALID,20.3854,VALID,153,VALID,0,
2011-12-14, 02:38:04,VALID,916.234,VALID,0,VALID,97.6712,VALID,0,VALID,20.3269,VALID,153,VALID,0,
2011-12-14, 02:39:04,VALID,916.229,VALID,0,VALID,97.6941,VALID,0,VALID,20.3854,VALID,153,VALID,0,
2011-12-14, 02:40:04,VALID,916.234,VALID,0,VALID,97.6712,VALID,0,VALID,20.3269,VALID,153,VALID,0,
2011-12-14, 02:41:04,VALID,916.192,VALID,0,VALID,97.7398,VALID,0,VALID,20.3854,VALID,153,VALID,0,
2011-12-14, 02:42:04,VALID,916.188,VALID,0,VALID,97.6941,VALID,0,VALID,20.3838,VALID,153,VALID,0,
2011-12-14, 02:43:04,VALID,916.189,VALID,0,VALID,97.6712,VALID,0,VALID,20.3659,VALID,153,VALID,0,
2011-12-14, 02:44:04,VALID,916.143,VALID,0,VALID,97.6941,VALID,0,VALID,20.3659,VALID,153,VALID,0,
2011-12-14, 02:45:04,VALID,916.141,VALID,0,VALID,97.6788,VALID,0,VALID,20.3854,VALID,153,VALID,0,
2011-12-14, 02:46:04,VALID,916.108,VALID,0,VALID,97.6865,VALID,0,VALID,20.3854,VALID,153,VALID,0,
2011-12-14, 02:47:04,VALID,916.124,VALID,0,VALID,97.6865,VALID,0,VALID,20.3854,VALID,153,VALID,0,
2011-12-14, 02:48:04,VALID,916.102,VALID,0,VALID,97.6712,VALID,0,VALID,20.4049,VALID,153,VALID,0,
2011-12-14, 02:49:04,VALID,916.065,VALID,0,VALID,97.7017,VALID,0,VALID,20.3838,VALID,153,VALID,0,
2011-12-14, 02:50:04,VALID,916.025,VALID,0,VALID,97.6331,VALID,0,VALID,20.4244,VALID,153,VALID,0,
2011-12-14, 02:51:04,VALID,916.022,VALID,0,VALID,97.5797,VALID,0,VALID,20.3464,VALID,153,VALID,0,
2011-12-14, 02:52:04,VALID,915.98,VALID,0,VALID,97.5569,VALID,0,VALID,20.3074,VALID,153,VALID,0.566406,
2011-12-14, 02:53:04,VALID,915.974,VALID,0,VALID,97.5721,VALID,0,VALID,20.2489,VALID,153,VALID,0.599609,
2011-12-14, 02:54:04,VALID,915.935,VALID,0,VALID,97.595,VALID,0,VALID,20.2684,VALID,153,VALID,0.667969,
2011-12-14, 02:55:04,VALID,915.925,VALID,0,VALID,97.6026,VALID,0,VALID,20.2083,VALID,153,VALID,0.576563,
2011-12-14, 02:56:04,VALID,915.948,VALID,0,VALID,97.6255,VALID,0,VALID,20.2489,VALID,153,VALID,0.642969,
2011-12-14, 02:57:04,VALID,915.963,VALID,0,VALID,97.6255,VALID,0,VALID,20.1903,VALID,153,VALID,0.651563,
2011-12-14, 02:58:04,VALID,915.968,VALID,0,VALID,97.6636,VALID,0,VALID,20.2098,VALID,153,VALID,0.566016,
2011-12-14, 02:59:04,VALID,915.993,VALID,0,VALID,97.656,VALID,0,VALID,20.1903,VALID,153,VALID,0.126953,
2011-12-14, 03:00:04,VALID,915.992,VALID,0,VALID,97.6941,VALID,0,VALID,20.2098,VALID,153,VALID,0,
2011-12-14, 03:01:04,VALID,916.019,VALID,0,VALID,97.7169,VALID,0,VALID,20.1903,VALID,153,VALID,0,
2011-12-14, 03:02:04,VALID,916.011,VALID,0,VALID,97.7169,VALID,0,VALID,20.2309,VALID,153,VALID,0,
2011-12-14, 03:03:04,VALID,916.032,VALID,0,VALID,97.7246,VALID,0,VALID,20.2293,VALID,153,VALID,0,
2011-12-14, 03:04:04,VALID,916.024,VALID,0,VALID,97.7169,VALID,0,VALID,20.2098,VALID,153,VALID,0,
2011-12-14, 03:05:04,VALID,916.027,VALID,0,VALID,97.7474,VALID,0,VALID,20.2489,VALID,153,VALID,0,
2011-12-14, 03:06:04,VALID,916.027,VALID,0,VALID,97.7703,VALID,0,VALID,20.2684,VALID,153,VALID,0,
2011-12-14, 03:07:04,VALID,916.014,VALID,0,VALID,97.7474,VALID,0,VALID,20.3074,VALID,153,VALID,0,
2011-12-14, 03:08:04,VALID,916.017,VALID,0,VALID,97.7932,VALID,0,VALID,20.3269,VALID,153,VALID,0,
2011-12-14, 03:09:04,VALID,916.025,VALID,0,VALID,97.7322,VALID,0,VALID,20.3659,VALID,153,VALID,0,
2011-12-14, 03:10:04,VALID,915.994,VALID,0,VALID,97.7322,VALID,0,VALID,20.2863,VALID,153,VALID,0,
2011-12-14, 03:11:04,VALID,915.987,VALID,0,VALID,97.7551,VALID,0,VALID,20.3464,VALID,153,VALID,0,
2011-12-14, 03:12:04,VALID,915.956,VALID,0,VALID,97.7017,VALID,0,VALID,20.2668,VALID,153,VALID,0,
2011-12-14, 03:13:04,VALID,915.931,VALID,0,VALID,97.6636,VALID,0,VALID,20.2489,VALID,153,VALID,0,
2011-12-14, 03:14:04,VALID,915.921,VALID,0,VALID,97.6636,VALID,0,VALID,20.2293,VALID,153,VALID,0.447656,
2011-12-14, 03:15:04,VALID,915.884,VALID,0,VALID,97.6865,VALID,0,VALID,20.2098,VALID,153,VALID,0.632422,
2011-12-14, 03:16:04,VALID,915.875,VALID,0,VALID,97.6865,VALID,0,VALID,20.1903,VALID,153,VALID,0.641797,
2011-12-14, 03:17:04,VALID,915.883,VALID,0,VALID,97.6865,VALID,0,VALID,20.1903,VALID,153,VALID,0.466406,
2011-12-14, 03:18:04,VALID,915.887,VALID,0,VALID,97.6788,VALID,0,VALID,20.1903,VALID,153,VALID,0.598437,
2011-12-14, 03:19:04,VALID,915.893,VALID,0,VALID,97.7017,VALID,0,VALID,20.1708,VALID,153,VALID,0.265234,
2011-12-14, 03:20:04,VALID,915.937,VALID,0,VALID,97.7169,VALID,0,VALID,20.1708,VALID,153,VALID,0.0148437,
2011-12-14, 03:21:04,VALID,915.956,VALID,0,VALID,97.7322,VALID,0,VALID,20.1903,VALID,153,VALID,0.160547,
2011-12-14, 03:22:04,VALID,915.95,VALID,0,VALID,97.7322,VALID,0,VALID,20.1903,VALID,153,VALID,0.490234,
2011-12-14, 03:23:04,VALID,915.985,VALID,0,VALID,97.7398,VALID,0,VALID,20.1708,VALID,153,VALID,0.510547,
2011-12-14, 03:24:04,VALID,916.006,VALID,0,VALID,97.7093,VALID,0,VALID,20.1708,VALID,153,VALID,0.430469,
2011-12-14, 03:25:04,VALID,916.075,VALID,0,VALID,97.7017,VALID,0,VALID,20.1513,VALID,153,VALID,0.253516,
2011-12-14, 03:26:04,VALID,916.033,VALID,0,VALID,97.7246,VALID,0,VALID,20.1498,VALID,153,VALID,0.523438,
2011-12-14, 03:27:04,VALID,916.082,VALID,0,VALID,97.7398,VALID,0,VALID,20.1498,VALID,139,VALID,0.726172,
2011-12-14, 03:28:04,VALID,916.053,VALID,0,VALID,97.7093,VALID,0,VALID,20.2098,VALID,130,VALID,0.721875,
2011-12-14, 03:29:04,VALID,916.077,VALID,0,VALID,97.7246,VALID,0,VALID,20.1318,VALID,129,VALID,0.767578,
2011-12-14, 03:30:04,VALID,916.086,VALID,0,VALID,97.7246,VALID,0,VALID,20.1708,VALID,119,VALID,0.710156,
2011-12-14, 03:31:04,VALID,916.079,VALID,0,VALID,97.7398,VALID,0,VALID,20.1708,VALID,118,VALID,0.614844,
2011-12-14, 03:32:04,VALID,916.07,VALID,0,VALID,97.7322,VALID,0,VALID,20.1513,VALID,99,VALID,1.09648,
2011-12-14, 03:33:04,VALID,916.089,VALID,0,VALID,97.7551,VALID,0,VALID,20.2293,VALID,98,VALID,0.74375,
2011-12-14, 03:34:04,VALID,916.078,VALID,0,VALID,97.7703,VALID,0,VALID,20.1708,VALID,98,VALID,0.953125,
2011-12-14, 03:35:04,VALID,916.057,VALID,0,VALID,97.7398,VALID,0,VALID,20.1513,VALID,98,VALID,0.546094,
2011-12-14, 03:36:04,VALID,916.056,VALID,0,VALID,97.7779,VALID,0,VALID,20.2293,VALID,98,VALID,0.544922,
2011-12-14, 03:37:04,VALID,916.03,VALID,0,VALID,97.8084,VALID,0,VALID,20.1693,VALID,98,VALID,0.0199219,
2011-12-14, 03:38:04,VALID,915.992,VALID,0,VALID,97.7627,VALID,0,VALID,20.2114,VALID,98,VALID,0.523047,
2011-12-14, 03:39:04,VALID,916.016,VALID,0,VALID,97.7627,VALID,0,VALID,20.2098,VALID,98,VALID,0.503516,
2011-12-14, 03:40:04,VALID,915.99,VALID,0,VALID,97.7551,VALID,0,VALID,20.1888,VALID,98,VALID,0,
2011-12-14, 03:41:04,VALID,915.983,VALID,0,VALID,97.7627,VALID,0,VALID,20.2098,VALID,98,VALID,0,
2011-12-14, 03:42:04,VALID,915.965,VALID,0,VALID,97.7779,VALID,0,VALID,20.2293,VALID,98,VALID,0.00117188,
2011-12-14, 03:43:04,VALID,915.942,VALID,0,VALID,97.7856,VALID,0,VALID,20.2083,VALID,98,VALID,0.559375,
2011-12-14, 03:44:04,VALID,915.966,VALID,0,VALID,97.7703,VALID,0,VALID,20.2489,VALID,98,VALID,0.625391,
2011-12-14, 03:45:04,VALID,915.944,VALID,0,VALID,97.7322,VALID,0,VALID,20.2098,VALID,98,VALID,0.259766,
2011-12-14, 03:46:04,VALID,915.938,VALID,0,VALID,97.7474,VALID,0,VALID,20.2098,VALID,98,VALID,0.696875,
2011-12-14, 03:47:04,VALID,915.922,VALID,0,VALID,97.7703,VALID,0,VALID,20.2489,VALID,98,VALID,0.612109,
2011-12-14, 03:48:04,VALID,915.896,VALID,0,VALID,97.7551,VALID,0,VALID,20.2098,VALID,98,VALID,0.278906,
2011-12-14, 03:49:04,VALID,915.885,VALID,0,VALID,97.7474,VALID,0,VALID,20.1903,VALID,98,VALID,0.45625,